DW5684 Weather Reports


Display with metric or nautical units.
time (UTC)temp
F
wind
direction
speed
MPH
gust
MPH
rain 1hr
in
rain 24hr
in
rain mn
in
humidity
%
barometer
mb
20260508231331 71 215 1.0 5.0 0.00 0.00 0.00 58 1007.4
20260508230825 72 209 1.0 4.0 0.00 0.00 0.00 58 1007.6
20260508230319 72 167 1.0 5.0 0.00 0.00 0.00 58 1007.7
20260508225813 72 223 2.0 8.0 0.00 0.00 0.00 55 1008.1
20260508225326 72 215 1.0 8.0 0.00 0.00 0.00 55 1008.2
20260508224820 73 215 2.0 5.0 0.00 0.00 0.00 55 1008.2
20260508224319 73 190 1.0 4.0 0.00 0.00 0.00 59 1008.3
20260508223813 73 220 2.0 4.0 0.00 0.00 0.00 58 1008.4
20260508223327 73 220 0.0 1.0 0.00 0.00 0.00 60 1008.6
20260508222822 73 228 0.0 0.0 0.00 0.00 0.00 59 1008.6
20260508222317 73 210 0.0 0.0 0.00 0.00 0.00 59 1008.5
20260508221852 74 208 0.0 0.0 0.00 0.00 0.00 57 1008.6
20260508221326 74 238 0.0 0.0 0.00 0.00 0.00 58 1008.6
20260508220821 74 219 0.0 0.0 0.00 0.00 0.00 56 1008.7
20260508220319 74 223 0.0 0.0 0.00 0.00 0.00 57 1008.7
20260508215854 74 221 0.0 4.0 0.00 0.00 0.00 56 1008.7
20260508215329 75 228 0.0 4.0 0.00 0.00 0.00 53 1008.6
20260508214823 75 196 0.0 3.0 0.00 0.00 0.00 52 1008.7
20260508185815 78 159 2.0 8.0 0.00 0.00 0.00 55 1010.0
20260508185329 78 207 2.0 8.0 0.00 0.00 0.00 52 1010.1
20260508184824 78 133 3.0 8.0 0.00 0.00 0.00 53 1010.1
20260508184323 77 122 3.0 7.0 0.00 0.00 0.00 47 1010.2
20260508183839 78 161 1.0 6.0 0.00 0.00 0.00 50 1010.1
20260508183331 77 155 2.0 8.0 0.00 0.00 0.00 53 1010.2
20260508182826 76 175 1.0 12.0 0.00 0.00 0.00 56 1010.3
20260508182321 75 200 4.0 12.0 0.00 0.00 0.00 53 1010.3
20260508181816 75 215 5.0 10.0 0.00 0.00 0.00 51 1010.4
20260508181330 76 213 3.0 8.0 0.00 0.00 0.00 51 1010.4
20260508180845 75 198 4.0 10.0 0.00 0.00 0.00 50 1010.5
20260508180323 76 204 5.0 10.0 0.00 0.00 0.00 50 1010.6
20260508175837 75 217 4.0 12.0 0.00 0.00 0.00 51 1010.7
20260508175331 75 228 3.0 12.0 0.00 0.00 0.00 55 1010.7
20260508174826 75 18 5.0 10.0 0.00 0.00 0.00 50 1010.9
20260508174321 75 184 3.0 10.0 0.00 0.00 0.00 52 1010.9
20260508173815 75 243 4.0 10.0 0.00 0.00 0.00 55 1011.0
20260508173331 74 162 4.0 10.0 0.00 0.00 0.00 58 1011.1
20260508172825 73 229 5.0 10.0 0.00 0.00 0.00 54 1011.2
20260508172324 73 212 1.0 11.0 0.00 0.00 0.00 56 1011.3
20260508171819 73 158 5.0 11.0 0.00 0.00 0.00 54 1011.6
20260508171314 73 221 4.0 10.0 0.00 0.00 0.00 60 1011.7
20260508170828 73 213 5.0 8.0 0.00 0.00 0.00 56 1011.7
20260508170323 73 269 5.0 8.0 0.00 0.00 0.00 57 1011.8
20260508165818 73 207 3.0 8.0 0.00 0.00 0.00 58 1011.9
20260508165314 72 127 3.0 12.0 0.00 0.00 0.00 61 1011.9
20260508164829 71 229 6.0 12.0 0.00 0.00 0.00 57 1012.0
20260508164346 71 180 4.0 11.0 0.00 0.00 0.00 58 1012.1
20260508163820 71 255 5.0 12.0 0.00 0.00 0.00 58 1012.2
20260508163314 71 215 4.0 12.0 0.00 0.00 0.00 59 1012.2
20260508162829 71 240 5.0 12.0 0.00 0.00 0.00 59 1012.3
20260508162323 71 219 2.0 10.0 0.00 0.00 0.00 59 1012.3
20260508161818 71 200 5.0 10.0 0.00 0.00 0.00 57 1012.4
20260508161332 71 229 4.0 13.0 0.00 0.00 0.00 58 1012.5
20260508160827 70 201 7.0 13.0 0.00 0.00 0.00 57 1012.6
20260508160346 71 211 4.0 10.0 0.00 0.00 0.00 59 1012.6
20260508155820 70 231 4.0 13.0 0.00 0.00 0.00 60 1012.6
20260508155315 70 218 6.0 13.0 0.00 0.00 0.00 59 1012.6
20260508154829 70 234 3.0 11.0 0.00 0.00 0.00 63 1012.7
20260508154325 69 237 4.0 11.0 0.00 0.00 0.00 61 1012.8
20260508153839 68 226 6.0 13.0 0.00 0.00 0.00 61 1012.8
20260508153354 68 214 6.0 13.0 0.00 0.00 0.00 62 1012.9
20260508152828 68 214 3.0 10.0 0.00 0.00 0.00 65 1012.8
20260508152322 67 215 5.0 10.0 0.00 0.00 0.00 63 1012.9
20260508151842 67 226 6.0 12.0 0.00 0.00 0.00 63 1013.0
20260508151335 67 269 5.0 12.0 0.00 0.00 0.00 64 1013.0
20260508150826 67 210 4.0 10.0 0.00 0.00 0.00 64 1013.0
20260508150320 67 221 4.0 11.0 0.00 0.00 0.00 63 1013.0
20260508145854 67 228 2.0 14.0 0.00 0.00 0.00 67 1013.0
20260508145327 67 354 3.0 14.0 0.00 0.00 0.00 66 1013.1
20260508144822 67 184 5.0 13.0 0.00 0.00 0.00 66 1013.2
20260508144337 66 229 3.0 13.0 0.00 0.00 0.00 66 1013.2
20260508143831 66 224 2.0 11.0 0.00 0.00 0.00 67 1013.3
20260508143326 65 174 5.0 11.0 0.00 0.00 0.00 66 1013.5
20260508142825 65 201 4.0 8.0 0.00 0.00 0.00 68 1013.6
20260508142320 64 165 3.0 9.0 0.00 0.00 0.00 69 1013.5
20260508141815 63 208 3.0 9.0 0.00 0.00 0.00 71 1013.7
20260508141330 63 196 3.0 9.0 0.00 0.00 0.00 70 1013.8
20260508140825 63 225 3.0 10.0 0.00 0.00 0.00 68 1013.7
20260508140339 64 212 5.0 12.0 0.00 0.00 0.00 68 1013.5
20260508135833 63 158 4.0 12.0 0.00 0.00 0.00 70 1013.5
20260508135328 63 197 5.0 9.0 0.00 0.00 0.00 68 1013.7
20260508134827 63 229 5.0 9.0 0.00 0.00 0.00 69 1013.7
20260508134323 63 218 3.0 9.0 0.00 0.00 0.00 69 1013.8
20260508133816 62 257 4.0 9.0 0.00 0.00 0.00 69 1013.9
20260508133330 62 201 3.0 8.0 0.00 0.00 0.00 70 1013.8
20260508132844 62 184 3.0 7.0 0.00 0.00 0.00 70 1013.8
20260508132338 61 224 2.0 10.0 0.00 0.00 0.00 71 1013.8
20260508131831 60 203 3.0 10.0 0.00 0.00 0.00 71 1013.7
20260508131326 60 221 5.0 10.0 0.00 0.00 0.00 70 1013.6
20260508130840 60 210 4.0 10.0 0.00 0.00 0.00 70 1013.5
20260508130317 60 210 3.0 7.0 0.00 0.00 0.00 71 1013.6
20260508125831 60 212 4.0 10.0 0.00 0.00 0.00 69 1013.4
20260508125325 60 215 5.0 12.0 0.00 0.00 0.00 69 1013.4
20260508124820 60 219 4.0 12.0 0.00 0.00 0.00 69 1013.4
20260508124314 60 226 4.0 10.0 0.00 0.00 0.00 69 1013.3
20260508123849 60 203 4.0 10.0 0.00 0.00 0.00 69 1013.3
20260508123323 59 203 6.0 10.0 0.00 0.00 0.00 69 1013.2
20260508122818 59 212 3.0 11.0 0.00 0.00 0.00 70 1013.3
20260508122315 58 212 4.0 11.0 0.00 0.00 0.00 71 1013.2
20260508121829 58 193 4.0 11.0 0.00 0.00 0.00 71 1013.2
20260508121323 57 140 3.0 10.0 0.00 0.00 0.00 71 1013.1
20260508120817 57 214 2.0 8.0 0.00 0.00 0.00 72 1013.1
20260508120331 57 196 3.0 8.0 0.00 0.00 0.00 71 1013.0
20260508115844 57 226 2.0 6.0 0.00 0.00 0.00 72 1012.9
20260508115315 57 219 2.0 9.0 0.00 0.00 0.00 71 1012.8
20260508114829 57 188 2.0 9.0 0.00 0.00 0.00 72 1012.7
20260508114324 57 209 3.0 7.0 0.00 0.00 0.00 71 1012.7
20260508113823 56 198 2.0 5.0 0.00 0.00 0.00 71 1012.6
20260508113338 57 197 1.0 5.0 0.00 0.00 0.00 71 1012.6
20260508112831 56 161 2.0 6.0 0.00 0.00 0.00 72 1012.6
20260508112326 56 214 3.0 6.0 0.00 0.00 0.00 71 1012.5
20260508111821 56 210 2.0 6.0 0.00 0.00 0.00 71 1012.5
20260508111336 56 235 2.0 5.0 0.00 0.00 0.00 72 1012.4
20260508110829 56 161 2.0 5.0 0.00 0.00 0.00 72 1012.4
20260508110324 56 162 2.0 4.0 0.00 0.00 0.00 73 1012.4
20260508105820 55 241 3.0 6.0 0.00 0.00 0.00 73 1012.3
20260508105319 55 180 1.0 6.0 0.00 0.00 0.00 73 1012.3
20260508104834 55 160 1.0 6.0 0.00 0.00 0.00 74 1012.3
20260508104328 54 140 1.0 5.0 0.00 0.00 0.00 75 1012.4
20260508103823 54 188 1.0 5.0 0.00 0.00 0.00 75 1012.3
20260508103318 54 228 0.0 3.0 0.00 0.00 0.00 75 1012.4
20260508102813 54 207 0.0 3.0 0.00 0.00 0.00 75 1012.5
20260508102328 54 195 0.0 3.0 0.00 0.00 0.00 75 1012.5
20260508101823 54 158 0.0 3.0 0.00 0.00 0.00 76 1012.5
20260508101418 53 193 1.0 4.0 0.00 0.00 0.00 76 1012.4
20260508100828 53 170 1.0 4.0 0.00 0.00 0.00 77 1012.5
20260508100326 52 198 0.0 5.0 0.00 0.00 0.00 78 1012.5
20260508095821 52 143 0.0 3.0 0.00 0.00 0.00 79 1012.5
20260508095317 51 195 1.0 3.0 0.00 0.00 0.00 80 1012.6
20260508094830 51 176 0.0 3.0 0.00 0.00 0.00 81 1012.7
20260508094324 51 131 0.0 0.0 0.00 0.00 0.00 81 1012.7
20260508093819 51 141 0.0 0.0 0.00 0.00 0.00 81 1012.7
20260508093314 51 141 0.0 0.0 0.00 0.00 0.00 81 1012.6
20260508092813 50 173 0.0 0.0 0.00 0.00 0.00 82 1012.6
20260508092328 50 165 0.0 0.0 0.00 0.00 0.00 82 1012.6
20260508091823 50 164 0.0 0.0 0.00 0.00 0.00 82 1012.5
20260508091317 50 165 0.0 0.0 0.00 0.00 0.00 82 1012.6
20260508090852 50 176 0.0 0.0 0.00 0.00 0.00 81 1012.6
20260508090326 50 175 0.0 0.0 0.00 0.00 0.00 81 1012.6
20260508085821 50 175 0.0 0.0 0.00 0.00 0.00 81 1012.7
20260508085316 50 176 0.0 0.0 0.00 0.00 0.00 81 1012.8
20260508084814 50 127 0.0 0.0 0.00 0.00 0.00 81 1012.8
20260508084329 51 127 0.0 1.0 0.00 0.00 0.00 80 1012.8
20260508083845 51 186 0.0 1.0 0.00 0.00 0.00 81 1012.8
20260508083318 51 148 0.0 2.0 0.00 0.00 0.00 80 1012.8
20260508082813 51 147 0.0 2.0 0.00 0.00 0.00 80 1012.9
20260508082329 51 166 0.0 0.0 0.00 0.00 0.00 80 1013.0
20260508081824 51 149 0.0 0.0 0.00 0.00 0.00 80 1013.0
20260508081319 51 151 0.0 0.0 0.00 0.00 0.00 79 1013.0
20260508080835 51 167 0.0 2.0 0.00 0.00 0.00 79 1013.0
20260508080313 52 201 0.0 2.0 0.00 0.00 0.00 79 1013.0
20260508075828 52 175 0.0 0.0 0.00 0.00 0.00 78 1013.0
20260508075323 52 161 0.0 3.0 0.00 0.00 0.00 78 1013.1
20260508074818 52 192 0.0 5.0 0.00 0.00 0.00 77 1013.1
20260508074313 52 179 0.0 5.0 0.00 0.00 0.00 77 1013.1
20260508073828 52 188 0.0 5.0 0.00 0.00 0.00 77 1013.2
20260508073322 52 186 1.0 5.0 0.00 0.00 0.00 77 1013.2
20260508072836 52 190 1.0 4.0 0.00 0.00 0.00 78 1013.2
20260508072332 52 217 0.0 5.0 0.00 0.00 0.00 77 1013.3
20260508071827 52 175 2.0 5.0 0.00 0.00 0.00 77 1013.3
20260508071322 52 212 1.0 4.0 0.00 0.00 0.00 77 1013.4
20260508070817 52 191 1.0 3.0 0.00 0.00 0.00 77 1013.5
20260508070352 52 168 1.0 3.0 0.00 0.00 0.00 77 1013.5
20260508065826 53 165 1.0 4.0 0.00 0.00 0.00 77 1013.6
20260508065320 53 161 2.0 4.0 0.00 0.00 0.00 77 1013.6
20260508064835 53 169 0.0 5.0 0.00 0.00 0.00 77 1013.6
20260508064313 53 178 1.0 5.0 0.00 0.00 0.00 77 1013.5
20260508063828 53 161 2.0 4.0 0.00 0.00 0.00 77 1013.6
20260508063323 53 167 1.0 5.0 0.00 0.00 0.00 77 1013.7
20260508062818 53 187 1.0 5.0 0.00 0.00 0.00 77 1013.7
20260508062332 52 225 1.0 3.0 0.00 0.00 0.00 77 1013.8
20260508061826 52 191 0.0 3.0 0.00 0.00 0.00 78 1013.8
20260508061321 52 158 1.0 3.0 0.00 0.00 0.00 78 1013.8
20260508060816 52 183 0.0 0.0 0.00 0.00 0.00 78 1013.8
20260508060315 52 202 0.0 0.0 0.00 0.00 0.00 78 1013.9
20260508055830 52 209 0.0 2.0 0.00 0.00 0.00 78 1014.0
20260508055326 52 198 0.0 2.0 0.00 0.00 0.00 78 1014.0
20260508054840 52 173 0.0 2.0 0.00 0.00 0.00 78 1014.0
20260508054313 52 188 0.0 2.0 0.00 0.00 0.00 78 1014.0
20260508053829 52 174 0.0 0.0 0.00 0.00 0.00 78 1014.1
20260508053324 52 187 0.0 0.0 0.00 0.00 0.00 78 1014.2
20260508052819 53 213 0.0 0.0 0.00 0.00 0.00 77 1014.2
20260508052318 53 193 0.0 0.0 0.00 0.00 0.00 77 1014.2
20260508051814 53 194 0.0 0.0 0.00 0.00 0.00 77 1014.2
20260508051329 53 173 0.0 0.0 0.00 0.00 0.00 76 1014.2
20260508050843 53 165 0.0 0.0 0.00 0.00 0.00 76 1014.3
20260508050317 53 193 0.0 2.0 0.00 0.00 0.00 76 1014.3
20260508045832 53 164 0.0 2.0 0.00 0.00 0.00 76 1014.2
20260508045326 53 165 0.0 2.0 0.00 0.00 0.00 76 1014.3
20260508044820 53 200 0.0 0.0 0.00 0.00 0.00 76 1014.3
20260508044315 54 186 0.0 1.0 0.00 0.00 0.00 75 1014.3
20260508043814 54 149 0.0 3.0 0.00 0.00 0.00 75 1014.4
20260508043309 54 182 0.0 5.0 0.00 0.00 0.00 75 1014.4
20260508042803 54 188 0.0 4.0 0.00 0.00 0.00 75 1014.5
20260508042257 54 174 1.0 4.0 0.00 0.00 0.00 75 1014.5
20260508041832 54 169 1.0 4.0 0.00 0.00 0.00 75 1014.5
20260508041306 54 202 1.0 4.0 0.00 0.00 0.00 75 1014.5
20260508040800 54 193 1.0 3.0 0.00 0.00 0.00 76 1014.6
20260508040335 53 156 1.0 2.0 0.00 0.00 0.00 76 1014.8
20260508035808 54 171 0.0 1.0 0.00 0.00 0.00 76 1014.7
20260508035306 54 194 0.0 3.0 0.00 0.00 0.00 76 1014.8
20260508034800 54 155 1.0 3.0 0.00 0.00 0.00 76 1014.8
20260508034255 54 181 0.0 2.0 0.00 0.00 0.00 76 1014.9
20260508033807 54 185 0.0 2.0 0.00 0.00 0.00 76 1014.9
20260508033322 53 167 0.0 1.0 0.00 0.00 0.00 77 1015.0
20260508032815 53 171 0.0 1.0 0.00 0.00 0.00 77 1015.0
20260508032309 53 186 0.0 1.0 0.00 0.00 0.00 77 1015.0
20260508031804 53 171 0.0 1.0 0.00 0.00 0.00 78 1015.0
20260508031258 53 172 0.0 2.0 0.00 0.00 0.00 79 1015.0
20260508030757 52 158 0.0 2.0 0.00 0.00 0.00 80 1015.0
20260508030331 52 200 0.0 0.0 0.00 0.00 0.00 81 1015.0
20260508025805 52 205 0.0 0.0 0.00 0.00 0.00 81 1014.9
20260508025258 52 205 0.0 0.0 0.00 0.00 0.00 81 1014.9
20260508024812 52 203 0.0 0.0 0.00 0.00 0.00 80 1014.8
20260508024326 53 203 0.0 0.0 0.00 0.00 0.00 79 1014.9
20260508023759 53 203 0.0 0.0 0.00 0.00 0.00 80 1014.9
20260508023313 53 203 0.0 0.0 0.00 0.00 0.00 80 1014.9
20260508022808 53 203 0.0 0.0 0.00 0.00 0.00 78 1014.7
20260508022323 53 203 0.0 0.0 0.00 0.00 0.00 78 1014.6
20260508021802 53 203 0.0 0.0 0.00 0.00 0.00 78 1014.6
20260508021256 53 203 0.0 0.0 0.00 0.00 0.00 78 1014.6
20260508020811 53 203 0.0 0.0 0.00 0.00 0.00 77 1014.5
20260508020306 54 203 0.0 0.0 0.00 0.00 0.00 76 1014.4
20260508015801 55 203 0.0 0.0 0.00 0.00 0.00 75 1014.3
20260508015257 55 203 0.0 0.0 0.00 0.00 0.00 74 1014.3
20260508014833 56 203 0.0 0.0 0.00 0.00 0.00 72 1014.3
20260508014307 57 203 0.0 0.0 0.00 0.00 0.00 71 1014.2
20260508013807 57 203 0.0 0.0 0.00 0.00 0.00 69 1014.2
20260508013301 58 203 0.0 0.0 0.00 0.00 0.00 67 1014.1
20260508012756 58 203 0.0 0.0 0.00 0.00 0.00 66 1014.1
20260508012311 59 210 0.0 1.0 0.00 0.00 0.00 65 1014.0
20260508011806 59 212 0.0 1.0 0.00 0.00 0.00 64 1014.0
20260508011301 60 181 0.0 0.0 0.00 0.00 0.00 64 1014.0
20260508010756 61 181 0.0 0.0 0.00 0.00 0.00 62 1014.0
20260508010255 61 217 0.0 3.0 0.00 0.00 0.00 60 1014.0
20260508005829 61 169 0.0 3.0 0.00 0.00 0.00 60 1014.0
20260508005305 62 216 0.0 2.0 0.00 0.00 0.00 59 1013.9
20260508004757 62 176 0.0 4.0 0.00 0.00 0.00 60 1013.9
20260508004310 63 226 0.0 4.0 0.00 0.00 0.00 59 1013.9
20260508003804 63 210 0.0 3.0 0.00 0.00 0.00 57 1014.0
20260508003259 64 174 2.0 3.0 0.00 0.00 0.00 55 1013.9
20260508002813 64 148 1.0 3.0 0.00 0.00 0.00 56 1013.8
20260508002329 64 178 0.0 5.0 0.00 0.00 0.00 55 1013.8
20260508001801 64 223 2.0 6.0 0.00 0.00 0.00 54 1013.8
20260508001300 65 217 2.0 6.0 0.00 0.00 0.00 54 1013.8
20260508000756 65 221 3.0 5.0 0.00 0.00 0.00 53 1013.8
20260508000312 65 188 1.0 7.0 0.00 0.00 0.00 53 1013.7
20260507235803 66 161 2.0 7.0 0.00 0.00 0.00 52 1013.7
20260507235258 66 219 0.0 2.0 0.00 0.00 0.00 53 1013.7
20260507234813 66 185 0.0 6.0 0.00 0.00 0.00 53 1013.7
20260507234308 66 209 2.0 6.0 0.00 0.00 0.00 51 1013.8
20260507233807 66 57 1.0 6.0 0.00 0.00 0.00 51 1013.9
20260507233301 66 163 1.0 5.0 0.00 0.00 0.00 51 1013.9
20260507232816 66 231 0.0 5.0 0.00 0.00 0.00 52 1013.9
20260507232310 66 221 0.0 6.0 0.00 0.00 0.00 50 1014.0
20260507231805 66 203 1.0 6.0 0.00 0.00 0.00 49 1014.0